Regional Weather Roundup
Issued by NWS

Home | Current Version | Previous Version | Graphics & Text | Print | Product List | Glossary On
Versions: 1 2 3 4 5 6 7 8 9 10 11 12 13 14 15 16 17 18 19 20 21 22 23 24 25 26 27 28 29 30 31 32 33 34 35 36 37 38 39 40 41 42 43 44 45 46 47 48 49 50
000
ASUS43 KBIS 261402
RWRND

NORTH DAKOTA REGIONAL WEATHER ROUNDUP
NATIONAL WEATHER SERVICE BISMARCK ND
800 AM CST SUN FEB 26 2017

NOTE: "FAIR" INDICATES FEW OR NO CLOUDS BELOW 12,000 FEET WITH NO
SIGNIFICANT WEATHER AND/OR OBSTRUCTIONS TO VISIBILITY.


NDZ001>003-009>011-017-261500-
NORTHWEST NORTH DAKOTA

CITY           SKY/WX    TMP DP  RH WIND       PRES   REMARKS
WILLISTON      CLOUDY    11   8  88 N5        29.71S FOG     WCI   3
MINOT          CLOUDY     1  -4  79 SW12      29.73R WCI -16
MINOT AFB      CLOUDY    -1  -5  83 SW5       29.74R WCI -11
$$

NDZ018>021-031>035-040>046-261500-
SOUTHWEST NORTH DAKOTA

CITY           SKY/WX    TMP DP  RH WIND       PRES   REMARKS
BISMARCK       CLOUDY    13   9  84 E5        29.78S WCI   5
DICKINSON      CLOUDY    17  15  92 S8        29.65S WCI   7
GARRISON         N/A      5   0  79 CALM      29.73R
HETTINGER ARPT CLEAR      8   5  87 CALM      29.69S
$$

NDZ004>008-012>016-024-026-027-054-261500-
NORTHEAST NORTH DAKOTA

CITY           SKY/WX    TMP DP  RH WIND       PRES   REMARKS
GRAND FORKS    CLEAR      2  -5  72 W8        29.81R WCI -12
GRND FRKS AFB  CLEAR      3  -1  83 W8        29.81R WCI -10
DEVILS LAKE    CLOUDY    -8 -11  86 W6        29.77S FOG     WCI -21
$$

NDZ022-023-025-028>030-036>039-047>053-261500-
SOUTHEAST NORTH DAKOTA

CITY           SKY/WX    TMP DP  RH WIND       PRES   REMARKS
FARGO          MOCLDY    10   6  84 MISG      29.81R
JAMESTOWN      FAIR      12   7  80 NW5       29.77R WCI   4
$$





USA.gov is the U.S. government's official web portal to all federal, state and local government web resources and services.